Tracking 20942 objects as of 4-Jul-2020
HD Live streaming from Space Station
objects crossing your sky now

HISPASAT 1A

Track HISPASAT 1A now!
HISPASAT 1A is classified as:


NORAD ID: 22116
Int'l Code: 1992-060A
Perigee: 36,045.9 km
Apogee: 36,082.8 km
Inclination: 12.7 °
Period: 1,449.9 minutes
Semi major axis: 42435 km
RCS: 7.143 m2 (large)
Launch date: September 10, 1992
Source: Spain (SPN)
Launch site: FRENCH GUIANA (FRGUI)
aabbcc
Your satellite tracking list
Your tracking list is empty




NASA's NSSDC Master Catalog

Two Line Element Set (TLE):
1 22116U 92060A   20185.54567576 -.00000112  00000-0  00000+0 0  9994
2 22116  12.6863  25.8058 0004345 323.9813  43.0674  0.99314087 97891
Source of the keplerian elements: AFSPC